Coningsby, United Kingdom

6:08 AM GMT on December 16, 2017 (GMT +0000)
Coningsby Air Base

Weather History for EGXC - May, 2013

Change the Weather History Date:

Tuesday, May 28, 2013

  Actual Average Record
Temperature  
Mean Temperature 54 °F -  
Max Temperature 61 °F - - ()
Min Temperature 46 °F - - ()
Degree Days  
Heating Degree Days 12    
Growing Degree Days 4 (Base 50)    
Moisture  
Dew Point 45 °F    
Average Humidity 72    
Maximum Humidity 94    
Minimum Humidity 55    
Precipitation  
Precipitation 0.00 in - - ()
Sea Level Pressure  
Sea Level Pressure 29.58 in    
Wind  
Wind Speed 7 mph ()    
Max Wind Speed 20 mph    
Max Gust Speed -    
Visibility 7.1 miles    
Events Rain    
T = Trace of Precipitation, MM = Missing Value Source: Averaged Metar Reports

Daily Weather History Graph

Daily Weather History Graph

Search for Another Location

Airport or City:

Trip Planner

Search our weather history database for the weather conditions in past years. The results will help you decide how hot, cold, wet, or windy it might be!

Date:

Astronomy

May. 28, 2013 Rise Set
Actual Time 4:44 AM BST 9:12 PM BST
Civil Twilight 3:56 AM BST 10:00 PM BST
Nautical Twilight 2:43 AM BST 11:14 PM BST
Astronomical Twilight 1:30 AM BST 12:25 AM BST
Moon No Moon Rise 8:27 AM BST (5/28)
Length of Visible Light 18h 03m
Length of Day
16h 27m
Waning Gibbous, 85% of the Moon is Illuminated
May 28
Waning Gibbous
May 31
Last Quarter
Jun 8
New
Jun 16
First Quarter
Jun 23
Full

Hourly Weather History & Observations

Time (BST) Temp. Windchill Dew Point Humidity Pressure Visibility Wind Dir Wind Speed Gust Speed Precip Events Conditions
12:50 AM 47 °F - 36 °F 56% 29.65 in 19 mi SE 3.5 mph - -   Partly Cloudy
12:50 AM 46.4 °F 45.2 °F 35.6 °F 66% 29.65 in - SE 3.5 mph - N/A   Clear
1:50 AM 48.2 °F - 37.4 °F 66% 29.62 in - ESE 3.5 mph - N/A   Clear
2:50 AM 50.0 °F - 41.0 °F 71% 29.62 in - ESE 5.8 mph - N/A   Clear
3:50 AM 50 °F - 41 °F 63% 29.62 in 16 mi East 3.5 mph - -   Overcast
3:50 AM 50.0 °F - 41.0 °F 71% 29.59 in - East 3.5 mph - N/A   Clear
4:50 AM 50.0 °F - 44.6 °F 82% 29.62 in 5.0 mi ESE 6.9 mph - N/A Rain Rain
5:50 AM 48.2 °F - 46.4 °F 93% 29.59 in 5.6 mi East 4.6 mph - N/A Rain Light Rain
6:50 AM 49 °F - 47 °F 92% 29.62 in 3 mi East 8.1 mph - - Rain Light Rain
6:50 AM 50.0 °F - 48.2 °F 94% 29.62 in 3.1 mi East 8.1 mph - N/A Rain Light Rain
7:50 AM 50.0 °F - 48.2 °F 94% 29.59 in 3.1 mi East 4.6 mph - N/A   Haze
8:50 AM 51.8 °F - 50.0 °F 94% 29.59 in 3.1 mi ENE 5.8 mph - N/A Rain Light Rain
9:50 AM 55 °F - 50 °F 78% 29.60 in 5 mi ENE 8.1 mph - - Rain Light Rain
9:50 AM 55.4 °F - 50.0 °F 82% 29.59 in 5.0 mi ENE 8.1 mph - N/A   Haze
10:50 AM 60.8 °F - 48.2 °F 63% 29.56 in 6.2 mi East 10.4 mph - N/A   Mostly Cloudy
11:50 AM 60.8 °F - 46.4 °F 59% 29.56 in - East 11.5 mph - N/A   Clear
12:50 PM 60 °F - 49 °F 57% 29.57 in 9 mi East 11.5 mph - - Rain Light Rain
12:50 PM 60.8 °F - 48.2 °F 63% 29.56 in 6.2 mi East 11.5 mph - N/A Rain Light Rain
1:50 PM 57.2 °F - 46.4 °F 67% 29.53 in 6.2 mi ENE 12.7 mph - N/A Rain Light Rain
2:50 PM 55.4 °F - 50.0 °F 82% 29.53 in 6.2 mi East 11.5 mph - N/A Rain Light Rain
3:50 PM 56 °F - 48 °F 67% 29.55 in 9 mi East 11.5 mph - - Rain Light Rain
3:50 PM 55.4 °F - 48.2 °F 77% 29.53 in - East 11.5 mph - N/A   Clear
4:50 PM 57.2 °F - 46.4 °F 67% 29.53 in 6.2 mi East 15.0 mph - N/A   Overcast
5:50 PM 55.4 °F - 44.6 °F 67% 29.50 in - East 19.6 mph - N/A   Clear
6:50 PM 54 °F - 45 °F 63% 29.54 in 9 mi East 18.4 mph - - Rain Light Rain
6:50 PM 53.6 °F - 44.6 °F 72% 29.53 in 6.2 mi East 18.4 mph - N/A Rain Light Rain
7:50 PM 53.6 °F - 42.8 °F 67% 29.53 in - East 13.8 mph - N/A   Clear
8:50 PM 53.6 °F - 41.0 °F 62% 29.53 in - East 17.3 mph - N/A   Clear
9:50 PM 53 °F - 42 °F 55% 29.58 in 12 mi East 13.8 mph - - Rain Light Rain
9:50 PM 53.6 °F - 41.0 °F 62% 29.56 in 6.2 mi East 13.8 mph - N/A Rain Light Rain
10:50 PM 51.8 °F - 41.0 °F 67% 29.56 in 6.2 mi East 8.1 mph - N/A   Overcast
11:50 PM 51.8 °F - 44.6 °F 76% 29.59 in 6.2 mi East 8.1 mph - N/A   Overcast